map of LMO home
Great Circle Mapper logo
LMO - Airport
Location
City:  Lossiemouth, Morayshire, Scotland, United Kingdom
Name:RAF
ICAO / IATA:EGQS / LMO

Details
Type:Airport (Aerodrome, Airfield)
Use:Military, International (customs port of entry)
Latitude:5742'19"N (57.705214)
Longitude:320'21"W (-3.339168)
Datum:WGS 1984
Elevation:42 ft (13 m)
Variation:3.1W (WMM2015 magnetic declination)
Runways:2
Longest:9091 × 150 ft (2771 × 45.5 m), paved

Time
Time Zone:UTC+0 (DST+1)
Local Time:

Weather
METAR:EGQS 221550Z 25014KT 9999 FEW020 SCT030 BKN220 06/02 Q0998 BLU NOSIG
TAF:EGQS 221339Z 2215/2309 24013KT 9999 SCT030 PROB30
TEMPO 2215/2309 25015G25KT -SHRA BKN020

Related Locations
Nearby:
Farthest:SZS: 11602 mi / 18672 km
Ryan's Creek, Stewart Island, NZ

Find:

   beyond  
but within

Other Information
Maps:
NOTAMs:
Links:
Sources:

  
flag of United Kingdom
flag of Scotland
flag of Royal Air Force
  

Airport Diagram

Airport diagram for LMO

Airport diagram (OBSOLETE) from NGA

Sectional Chart

Flight Planning
at skyvector.com

Satellite Image

Google Maps Satellite View

 

Copyright © 2004-2014 Karl L. Swartz. All rights reserved.
The Great Circle Mapper name and logo are trademarks of the Great Circle Mapper.
All other trademarks mentioned herein belong to their respective owners.
Please see credits for attibutions and further copyright information.

  Follow gcmap on Facebook Follow gcmap on Twitter

hCard Microformat

Geo Microformat